CZ-3C DEB, 40204

Orbit data source: Space-Track

CZ-3C DEB, 40204 is space debris in HEO originally from a launch on Fri, 24 Feb 2012 UTC launched from the Xichang Space Center, China (XSC). Debris objects in space refer to the collection of defunct objects orbiting the Earth. Examples of debris include non-operational satellites, rocket bodies, and fragments generated from explosions, collisions, or faulty payload assembly.

Loading next visibility...
Identifier
40204, 2012-008P
Orbit
HEO
Country
Flag of CNCN / PRC
Related business
Manufacturer
CALT
Mission
Spacecraft
Bus & Motor
Unknown
Mass
Unknown
Launch date (UTC)
2012-02-24 (14 years ago)
Launch vehicle
Unknown
Launch site
Xichang Space Center, China (XSC)
Object type
Payload
Rocket body
Debris
Shape & HBR
Unknown
Radar Cross Section
Medium (>0.1 m² and <1 m²)

Expand to show TLE details & history
Last TLE update: 3 days ago

TLE from 3 days ago
0 CZ-3C DEB
1 40204U 12008P   25255.41834818 -.00000156  00000-0  14862-2 0  9993
2 40204  20.3257 110.3256 7080601  49.2229 353.5428  2.27020768 90406
Epoch: 2025-09-12T10:02Z
TLE epoch observation values (Epoch: 2025-09-12T10:02:25.282Z)
Latitude
-0.00055°
Longitude
-31.84813°
Altitude
1,933.626 km
Speed
8.922 km/s
True Right ascension
07h 21m 41s
True Declination
0° 00' 02"
Sunlit
Object was in daylight at epoch
Visualization orbit readout
Latitude
Unknown
Longitude
Unknown
Altitude
Unknown
Speed
Unknown
Apparent Right ascension
Unknown
Apparent Declination
Unknown
Sunlit
N/A
Visualization observer readout
Local Sidereal Time
05:35:29
Azimuth
Unknown
Elevation
Unknown
Doppler factor
Unknown
Orbital elements
Apogee altitude
35,398.736 km
Perigee altitude
762.324 km
Semi-major axis
24,458.667 km
Eccentricity
0.70806
Inclination
20.3257°
RAAN
110.3256°
Arg. of periapsis
49.2229°
True anomaly
311.73227°
Mean anomaly
353.5428°
Eccentric anomaly
339.01246°
Mean motion
0.56741 °/min
Orbital period
634.47 mins
BSTAR
0.0014862
Loading maneuver chart data...
Computing Atmospheric mass density...
Loading historical data...
Loading historical data...
Loading historical data...
Loading historical data...
Loading historical data...
Loading historical data...
Loading historical data...

Documentation

Showing up to 5 results
|